Location: Bosdarros
(43.2167°N, 0.3667°W)
Time: 03:04:34
(UTC+00:00)

Cosmos 2344 - Pass Details

Date: 22 April 2021
Orbit: 1240 x 3002 km, 63.3° (Epoch: 15 May)

Event Time Altitude Azimuth Distance (km) Brightness Sun altitude
Rises 19:53:31 0° 222° (SW) 4,327 6.5 -11.0°
Reaches altitude 10° 19:56:23 10° 224° (SW) 3,272 5.9 -11.4°
Maximum altitude 20:03:52 73° 309° (NW) 1,299 3.8 -12.6°
Drops below altitude 10° 20:11:43 10° 35° (NE) 3,420 5.8 -13.8°
Sets 20:14:47 0° 37° (NE) 4,537 6.4 -14.3°
